{"data":{"norad_id":69901,"epoch":"2026-09-20T03:56:09.136032Z","epoch_age_seconds":46769,"freshness":"FRESH","line1":"1 69901U 26156AJ  26263.16399463  .00000592  00000+0  65204-4 0  9991","line2":"2 69901  97.7439 162.2787 0003231 230.6571 129.4361 14.91178548 11154","mean_motion":14.91178548,"eccentricity":0.0003231,"inclination_deg":97.7439,"raan_deg":162.2787,"arg_perigee_deg":230.6571,"mean_anomaly_deg":129.4361,"bstar":6.5204e-5,"rev_number":1115,"period_min":96.567912805033,"perigee_km":592.00672241011,"apogee_km":596.51228503082,"semimajor_km":6972.3965037205,"source":"CELESTRAK","updated_at":"2026-09-20T09:00:25.171534Z"}}